Home > Weather > Playa del Carmen > Past weeks

Flag for Mexico Past Weather in Playa del Carmen, Quintana Roo, Mexico — Yesterday and Last 2 Weeks

Now
88 °F

Partly sunny.


Feels Like: 100 °F
Forecast: 82 / 89 °F
Wind: 9 mph from Southeast

Location: Cancun International Airport

Current Time: Jul 26, 2016 at 8:25:39 PM

Latest Report: Jul 26, 2016 at 4:50 PM


Visibility: 7 mi

Pressure: 29.94 "Hg

Humidity: 70%

Dew Point: 77 °F

Location of Playa del CarmenLocation

Past Weather in Playa del Carmen — Graph

°F

Playa del Carmen Temperature Yesterday

Maximum temperature yesterday: 88 °F (at 11:44 AM)
Minimum temperature yesterday: 77 °F (at 2:43 AM)
Average temperature yesterday: 82 °F

High & Low Weather Summary for the Past Weeks

 TemperatureHumidityPressure
High91 °F (Jul 13, 4:44 PM)100% (Jul 14, 4:46 AM)30.10 "Hg (Jul 14, 4:46 AM)
Low73 °F (Jul 19, 4:47 AM)56% (Jul 13, 4:44 PM)29.93 "Hg (Jul 26, 4:45 AM)
Average83 °F83%30.01 "Hg
* Reported Jul 11 5:43 PM — Jul 26 4:50 PM, Playa del Carmen, Weather by CustomWeather, © 2016

Note: Actual official high and low records may vary slightly from our data, if they occured in-between our weather recording intervals... More about our weather records

Advertising

Playa del Carmen Weather History for the Previous 24 Hours

Scroll right to see more
 ConditionsComfort  
Time TempWeatherWind HumidityBarometerVisibility
4:50 PM
Tue, Jul 26
88 °FPartly sunny.9 mph70%29.94 "Hg7 mi
3:47 PM88 °FPartly sunny.17 mph66%29.95 "Hg7 mi
2:48 PM88 °FPartly sunny.7 mph70%29.96 "Hg7 mi
1:49 PM90 °FBroken clouds.14 mph67%29.97 "Hg7 mi
12:46 PM88 °FBroken clouds.16 mph70%29.98 "Hg7 mi
11:43 AM90 °FBroken clouds.13 mph67%29.99 "Hg7 mi
10:44 AM88 °FPartly sunny.10 mph70%30.00 "Hg7 mi
9:51 AM88 °FBroken clouds.17 mph62%30.00 "Hg7 mi
8:45 AM86 °FBroken clouds.17 mph75%29.99 "Hg7 mi
7:45 AM84 °FScattered clouds.10 mph79%29.98 "Hg7 mi
6:45 AM84 °FPartly cloudy.8 mph79%29.96 "Hg7 mi
5:45 AM82 °FPassing clouds.6 mph89%29.94 "Hg7 mi
4:45 AM82 °FPartly cloudy.5 mph89%29.93 "Hg7 mi
3:44 AM82 °FPartly cloudy.7 mph89%29.94 "Hg7 mi
2:45 AM82 °FPassing clouds.5 mph89%29.96 "Hg7 mi
1:40 AM84 °FPassing clouds.5 mph84%29.98 "Hg7 mi
12:45 AM84 °FPassing clouds.5 mph79%29.99 "Hg7 mi
11:45 PM
Mon, Jul 25
82 °FPassing clouds.5 mph84%30.00 "Hg7 mi
10:45 PM82 °FPassing clouds.5 mph84%30.00 "Hg7 mi
9:45 PM82 °FPartly cloudy.5 mph89%29.99 "Hg7 mi
Weather by CustomWeather, © 2016

See weather overviewHow to use our weather pages